GW2129 Weather Reports


Display with metric or nautical units.
time (UTC)temp
F
wind
direction
speed
MPH
gust
MPH
rain 1hr
in
rain 24hr
in
rain mn
in
humidity
%
barometer
mb
20260905133537 83 326 0.0 2.0 0.00 0.00 0.00 82 1015.3
20260905133036 82 354 2.0 2.0 0.00 0.00 0.00 84 1015.1
20260905132531 81 107 1.0 2.0 0.00 0.00 0.00 85 1015.0
20260905132026 82 335 2.0 2.0 0.00 0.00 0.00 83 1014.9
20260905131521 81 32 0.0 2.0 0.00 0.00 0.00 84 1014.9
20260905131016 81 354 2.0 2.0 0.00 0.00 0.00 84 1014.9
20260905130515 81 330 1.0 2.0 0.00 0.00 0.00 84 1014.7
20260905130011 80 10 0.0 1.0 0.00 0.00 0.00 88 1014.7
20260905125505 79 242 0.0 0.0 0.00 0.00 0.00 93 1014.3
20260905125001 78 283 0.0 1.0 0.00 0.00 0.00 96 1014.5
20260905124457 78 322 0.0 1.0 0.00 0.00 0.00 96 1014.5
20260905123953 77 209 0.0 0.0 0.00 0.00 0.00 96 1014.4
20260905123449 76 291 0.0 1.0 0.00 0.00 0.00 96 1014.1
20260905122948 75 269 0.0 0.0 0.00 0.00 0.00 96 1014.6
20260905122443 74 286 0.0 1.0 0.00 0.00 0.00 96 1014.1
20260905121938 74 279 0.0 1.0 0.00 0.00 0.00 96 1014.3
20260905121434 75 273 2.0 2.0 0.00 0.00 0.00 96 1014.1
20260905120933 74 242 0.0 2.0 0.00 0.00 0.00 96 1014.2
20260905120428 74 226 0.0 2.0 0.00 0.00 0.00 96 1014.1
20260905115923 74 269 0.0 0.0 0.00 0.00 0.00 96 1014.1
20260905115422 74 256 0.0 2.0 0.00 0.00 0.00 96 1014.3
20260905114917 74 319 0.0 1.0 0.00 0.00 0.00 96 1014.2
20260905114416 74 269 0.0 0.0 0.00 0.00 0.00 96 1014.1
20260905113916 74 269 0.0 0.0 0.00 0.00 0.00 96 1014.2
20260905113411 75 230 0.0 0.0 0.00 0.00 0.00 96 1014.1
20260905112906 75 247 1.0 1.0 0.00 0.00 0.00 96 1014.3
20260905112401 75 309 0.0 0.0 0.00 0.00 0.00 95 1014.3
20260905111856 75 75 0.0 0.0 0.00 0.00 0.00 95 1014.0
20260905111350 75 269 1.0 2.0 0.00 0.00 0.00 95 1014.1
20260905110850 75 284 0.0 0.0 0.00 0.00 0.00 95 1013.9
20260905110344 76 322 0.0 0.0 0.00 0.00 0.00 95 1013.9
20260905105839 76 269 0.0 2.0 0.00 0.00 0.00 95 1013.9
20260905105339 75 324 0.0 1.0 0.00 0.00 0.00 95 1013.9
20260905104833 75 283 0.0 1.0 0.00 0.00 0.00 95 1014.0
20260905104330 76 25 0.0 0.0 0.00 0.00 0.00 95 1014.1
20260905103829 76 246 0.0 1.0 0.00 0.00 0.00 95 1013.9
20260905103325 76 309 0.0 1.0 0.00 0.00 0.00 94 1014.0
20260905102820 76 304 0.0 0.0 0.00 0.00 0.00 94 1013.8
20260905102317 76 304 0.0 0.0 0.00 0.00 0.00 94 1013.8
20260905101817 76 304 0.0 0.0 0.00 0.00 0.00 94 1013.8
20260905101315 76 304 0.0 0.0 0.00 0.00 0.00 94 1013.7
20260905100809 76 304 0.0 0.0 0.00 0.00 0.00 94 1013.8
20260905100306 76 309 0.0 0.0 0.00 0.00 0.00 93 1013.8
20260905095804 76 326 0.0 0.0 0.00 0.00 0.00 93 1013.7
20260905095259 76 326 0.0 0.0 0.00 0.00 0.00 93 1014.0
20260905094754 77 217 0.0 0.0 0.00 0.00 0.00 93 1013.8
20260905094249 77 260 1.0 1.0 0.00 0.00 0.00 93 1013.8
20260905093748 77 315 0.0 0.0 0.00 0.00 0.00 92 1013.9
20260905093244 77 333 0.0 0.0 0.00 0.00 0.00 92 1014.0
20260905092740 77 309 0.0 1.0 0.00 0.00 0.00 92 1013.9
20260905092235 77 284 0.0 1.0 0.00 0.00 0.00 92 1013.8
20260905091735 77 249 0.0 1.0 0.00 0.00 0.00 92 1014.0
20260905091230 77 242 0.0 1.0 0.00 0.00 0.00 91 1014.0
20260905090728 77 293 0.0 1.0 0.00 0.00 0.00 91 1014.1
20260905090224 78 255 0.0 1.0 0.00 0.00 0.00 91 1013.9
20260905085718 78 142 0.0 0.0 0.00 0.00 0.00 90 1014.0
20260905085213 78 242 0.0 1.0 0.00 0.00 0.00 90 1013.6
20260905084712 78 127 0.0 0.0 0.00 0.00 0.00 90 1013.9
20260905084207 78 154 0.0 1.0 0.00 0.00 0.00 90 1014.0
20260905083701 78 304 0.0 0.0 0.00 0.00 0.00 90 1013.8
20260905083158 78 304 0.0 0.0 0.00 0.00 0.00 90 1013.9
20260905082653 78 304 0.0 0.0 0.00 0.00 0.00 90 1014.1
20260905082148 78 293 0.0 1.0 0.00 0.00 0.00 90 1014.1
20260905081643 78 297 0.0 1.0 0.00 0.00 0.00 90 1014.2
20260905081138 78 269 0.0 1.0 0.00 0.00 0.00 89 1014.1
20260905080632 78 299 0.0 0.0 0.00 0.00 0.00 89 1014.4
20260905080127 78 89 0.0 0.0 0.00 0.00 0.00 89 1014.4
20260905075626 78 89 0.0 0.0 0.00 0.00 0.00 89 1014.2
20260905075126 78 229 0.0 0.0 0.00 0.00 0.00 89 1014.3
20260905074625 78 206 0.0 2.0 0.00 0.00 0.00 89 1014.3
20260905074120 78 225 0.0 1.0 0.00 0.00 0.00 89 1014.4
20260905073616 78 252 0.0 1.0 0.00 0.00 0.00 88 1014.5
20260905073112 78 291 0.0 1.0 0.00 0.00 0.00 88 1014.3
20260905072611 78 195 0.0 2.0 0.00 0.00 0.00 88 1014.4
20260905072106 78 165 0.0 2.0 0.00 0.00 0.00 87 1014.4
20260905071603 78 269 0.0 2.0 0.00 0.00 0.00 87 1014.9
20260905071103 78 320 0.0 2.0 0.00 0.00 0.00 87 1014.6
20260905070558 78 266 0.0 1.0 0.00 0.00 0.00 87 1015.0
20260905070054 78 288 0.0 2.0 0.00 0.00 0.00 87 1014.6
20260905065552 78 246 0.0 2.0 0.00 0.00 0.00 86 1014.6
20260905065047 78 282 0.0 0.0 0.00 0.00 0.00 86 1014.7
20260905064542 79 278 0.0 2.0 0.00 0.00 0.00 86 1014.9
20260905064037 79 283 0.0 2.0 0.00 0.00 0.00 85 1014.5
20260905063536 79 322 0.0 1.0 0.00 0.00 0.00 85 1014.6
20260905063033 79 216 0.0 2.0 0.00 0.00 0.00 84 1014.7
20260905062532 79 230 1.0 1.0 0.00 0.00 0.00 84 1014.9
20260905062027 79 164 0.0 1.0 0.00 0.00 0.00 84 1015.0
20260905061522 79 240 0.0 2.0 0.00 0.00 0.00 84 1014.9
20260905061021 79 206 1.0 2.0 0.00 0.00 0.00 84 1014.9
20260905060518 79 156 0.0 2.0 0.00 0.00 0.00 83 1015.1
20260905060013 80 166 0.0 1.0 0.00 0.00 0.00 83 1014.7
20260905055511 80 220 1.0 2.0 0.00 0.00 0.00 82 1014.4
20260905055006 80 166 0.0 3.0 0.00 0.00 0.00 82 1014.9
20260905054502 80 81 0.0 2.0 0.00 0.00 0.00 82 1014.7
20260905053957 80 95 0.0 3.0 0.00 0.00 0.00 82 1014.7
20260905053452 80 186 1.0 2.0 0.00 0.00 0.00 82 1014.9
20260905052948 80 283 1.0 2.0 0.00 0.00 0.00 82 1014.6
20260905052447 80 149 0.0 1.0 0.00 0.00 0.00 82 1014.7
20260905051947 80 102 0.0 3.0 0.00 0.00 0.00 82 1015.0
20260905051442 80 337 0.0 3.0 0.00 0.00 0.00 81 1014.7
20260905050939 80 129 0.0 2.0 0.00 0.00 0.00 81 1014.7
20260905050435 81 208 0.0 2.0 0.00 0.00 0.00 81 1014.9
20260905045931 81 157 2.0 2.0 0.00 0.00 0.00 81 1014.7
20260905045426 81 119 0.0 0.0 0.00 0.00 0.00 81 1014.9
20260905044921 81 221 1.0 3.0 0.00 0.00 0.00 80 1014.9
20260905044416 81 142 0.0 3.0 0.00 0.00 0.00 80 1014.7
20260905043915 81 131 0.0 2.0 0.00 0.00 0.00 80 1014.6
20260905043410 81 113 1.0 1.0 0.00 0.00 0.00 80 1015.0
20260905042909 81 134 1.0 1.0 0.00 0.00 0.00 80 1015.1
20260905042404 81 187 0.0 2.0 0.00 0.00 0.00 80 1015.0
20260905041859 81 160 0.0 2.0 0.00 0.00 0.00 79 1014.9
20260905041355 81 107 0.0 1.0 0.00 0.00 0.00 79 1015.0
20260905040849 81 75 0.0 2.0 0.00 0.00 0.00 78 1015.0
20260905040349 82 147 0.0 2.0 0.00 0.00 0.00 78 1014.6
20260905035848 82 147 0.0 2.0 0.00 0.00 0.00 78 1014.6
20260905035344 82 105 0.0 1.0 0.00 0.00 0.00 78 1014.9
20260905034840 82 228 0.0 1.0 0.00 0.00 0.00 77 1014.7
20260905034336 82 157 1.0 3.0 0.00 0.00 0.00 76 1014.6
20260905033834 82 160 1.0 3.0 0.00 0.00 0.00 76 1014.5
20260905033330 82 151 1.0 3.0 0.00 0.00 0.00 75 1014.5
20260905032829 82 103 1.0 2.0 0.00 0.00 0.00 75 1014.9
20260905032325 83 79 0.0 1.0 0.00 0.00 0.00 75 1014.5
20260905031820 83 118 2.0 2.0 0.00 0.00 0.00 74 1014.4
20260905031316 83 246 0.0 1.0 0.00 0.00 0.00 74 1014.3
20260905030810 83 124 0.0 3.0 0.00 0.00 0.00 73 1014.4
20260905030306 83 144 1.0 3.0 0.00 0.00 0.00 73 1014.2
20260905025805 83 132 1.0 5.0 0.00 0.00 0.00 72 1014.3
20260905025301 83 108 2.0 3.0 0.00 0.00 0.00 71 1014.1
20260905024757 83 125 2.0 4.0 0.00 0.00 0.00 71 1014.2
20260905024252 84 122 2.0 3.0 0.00 0.00 0.00 70 1014.1
20260905023747 84 122 3.0 4.0 0.00 0.00 0.00 69 1013.9
20260905023242 84 117 3.0 4.0 0.00 0.00 0.00 68 1014.1
20260905022741 84 89 0.0 4.0 0.00 0.00 0.00 67 1013.8
20260905022237 84 111 3.0 5.0 0.00 0.00 0.00 67 1014.0
20260905021737 85 155 0.0 5.0 0.00 0.00 0.00 66 1013.7
20260905021231 84 92 4.0 5.0 0.00 0.00 0.00 66 1013.8
20260905020726 84 110 3.0 3.0 0.00 0.00 0.00 67 1013.6
20260905020222 84 89 1.0 1.0 0.00 0.00 0.00 67 1013.7
20260905015720 84 276 0.0 1.0 0.00 0.00 0.00 67 1013.7
20260905015215 84 119 0.0 0.0 0.00 0.00 0.00 66 1013.5
20260905014713 84 233 0.0 1.0 0.00 0.00 0.00 66 1013.4
20260905014209 85 321 0.0 1.0 0.00 0.00 0.00 65 1013.3
20260905013705 85 34 0.0 0.0 0.00 0.00 0.00 65 1013.4
20260905013201 85 81 1.0 1.0 0.00 0.00 0.00 65 1013.5
20260905012656 85 62 0.0 0.0 0.00 0.00 0.00 64 1013.6
20260905012152 85 71 2.0 2.0 0.00 0.00 0.00 64 1013.4
20260905011648 85 129 0.0 0.0 0.00 0.00 0.00 63 1013.6
20260905011144 86 44 0.0 1.0 0.00 0.00 0.00 63 1013.5
20260905010638 86 99 0.0 1.0 0.00 0.00 0.00 63 1013.1
20260905010134 86 73 0.0 1.0 0.00 0.00 0.00 63 1013.2
20260905005630 86 113 2.0 3.0 0.00 0.00 0.00 62 1013.2
20260905005126 86 47 0.0 3.0 0.00 0.00 0.00 62 1013.0
20260905004625 87 154 2.0 3.0 0.00 0.00 0.00 61 1013.2
20260905004120 86 108 2.0 5.0 0.00 0.00 0.00 61 1013.2
20260905003616 87 83 2.0 3.0 0.00 0.00 0.00 61 1013.0
20260905003112 87 114 3.0 6.0 0.00 0.00 0.00 60 1013.0
20260905002607 87 100 3.0 4.0 0.00 0.00 0.00 60 1012.8
20260905002102 88 116 2.0 5.0 0.00 0.00 0.00 59 1012.9
20260905001556 88 109 1.0 5.0 0.00 0.00 0.00 59 1012.9
20260905001050 88 117 3.0 8.0 0.00 0.00 0.00 59 1012.7
20260905000545 88 98 3.0 7.0 0.00 0.00 0.00 58 1012.6
20260905000042 88 100 4.0 9.0 0.00 0.00 0.00 58 1012.6
20260904235537 89 73 8.0 8.0 0.00 0.00 0.00 58 1012.6
20260904235036 89 114 3.0 10.0 0.00 0.00 0.00 58 1012.4
20260904234537 89 101 6.0 13.0 0.00 0.00 0.00 58 1012.5
20260904234032 90 129 2.0 8.0 0.00 0.00 0.00 59 1012.3
20260904233527 90 106 8.0 10.0 0.00 0.00 0.00 59 1012.5
20260904233024 91 118 6.0 11.0 0.00 0.00 0.00 57 1012.5
20260904232520 93 136 4.0 7.0 0.00 0.00 0.00 45 1012.2
20260904232016 93 137 1.0 5.0 0.00 0.00 0.00 47 1012.6
20260904231512 94 229 0.0 5.0 0.00 0.00 0.00 46 1012.5
20260904231006 94 151 3.0 12.0 0.00 0.00 0.00 47 1012.6
20260904230506 96 283 0.0 5.0 0.00 0.00 0.00 45 1012.6
20260904230001 96 241 0.0 5.0 0.00 0.00 0.00 44 1012.6
20260904225458 96 239 2.0 3.0 0.00 0.00 0.00 46 1012.7
20260904224953 95 281 2.0 5.0 0.00 0.00 0.00 45 1012.8
20260904224449 96 277 3.0 6.0 0.00 0.00 0.00 44 1012.7
20260904223948 95 287 2.0 5.0 0.00 0.00 0.00 46 1012.8
20260904223447 95 192 1.0 4.0 0.00 0.00 0.00 47 1012.7
20260904222943 96 258 2.0 7.0 0.00 0.00 0.00 44 1012.8
20260904222438 95 227 2.0 5.0 0.00 0.00 0.00 44 1012.7
20260904221932 94 138 2.0 5.0 0.00 0.00 0.00 46 1012.6
20260904221427 95 273 2.0 5.0 0.00 0.00 0.00 45 1012.9
20260904220923 96 267 4.0 6.0 0.00 0.00 0.00 42 1012.9
20260904220422 96 219 7.0 7.0 0.00 0.00 0.00 40 1012.9
20260904215917 95 116 0.0 4.0 0.00 0.00 0.00 42 1012.9
20260904215411 94 184 3.0 8.0 0.00 0.00 0.00 42 1012.7
20260904214908 95 312 2.0 6.0 0.00 0.00 0.00 42 1012.9
20260904214404 95 301 2.0 6.0 0.00 0.00 0.00 42 1013.0
20260904213902 93 128 2.0 5.0 0.00 0.00 0.00 42 1013.1
20260904213356 92 110 5.0 5.0 0.00 0.00 0.00 40 1013.3
20260904212853 91 286 2.0 7.0 0.00 0.00 0.00 52 1013.5
20260904212347 92 104 3.0 4.0 0.00 0.00 0.00 51 1013.2
20260904211843 91 257 2.0 4.0 0.00 0.00 0.00 54 1013.3
20260904211337 91 98 4.0 8.0 0.00 0.00 0.00 54 1013.4
20260904210832 91 123 3.0 5.0 0.00 0.00 0.00 56 1013.5
20260904210326 92 180 2.0 5.0 0.00 0.00 0.00 55 1013.7
20260904205822 90 104 2.0 7.0 0.00 0.00 0.00 57 1013.5
20260904205318 90 92 6.0 6.0 0.00 0.00 0.00 57 1013.6
20260904204815 90 147 2.0 5.0 0.00 0.00 0.00 57 1013.9
20260904204310 89 150 2.0 5.0 0.00 0.00 0.00 58 1013.9
20260904203806 89 145 6.0 7.0 0.00 0.00 0.00 59 1013.8
20260904203302 89 174 3.0 4.0 0.00 0.00 0.00 60 1014.0
20260904202758 89 118 1.0 7.0 0.00 0.00 0.00 61 1014.2
20260904202254 90 156 5.0 7.0 0.00 0.00 0.00 60 1013.8
20260904201750 91 124 3.0 4.0 0.00 0.00 0.00 60 1014.0
20260904201249 91 104 0.0 4.0 0.00 0.00 0.00 55 1013.9
20260904200744 91 245 0.0 2.0 0.00 0.00 0.00 57 1014.1
20260904200239 91 301 0.0 3.0 0.00 0.00 0.00 56 1014.1
20260904195738 91 236 0.0 3.0 0.00 0.00 0.00 57 1014.1
20260904195236 91 273 0.0 4.0 0.00 0.00 0.00 56 1014.1
20260904194732 91 301 2.0 3.0 0.00 0.00 0.00 57 1014.2
20260904194231 90 285 0.0 4.0 0.00 0.00 0.00 59 1014.3
20260904193726 90 87 5.0 5.0 0.00 0.00 0.00 61 1014.1
20260904193222 91 130 0.0 3.0 0.00 0.00 0.00 58 1014.4
20260904192717 91 228 3.0 3.0 0.00 0.00 0.00 58 1014.1
20260904192212 92 142 4.0 5.0 0.00 0.00 0.00 56 1014.1
20260904191709 92 134 1.0 4.0 0.00 0.00 0.00 57 1014.3
20260904191205 91 207 1.0 4.0 0.00 0.00 0.00 56 1014.3
20260904190701 92 202 3.0 6.0 0.00 0.00 0.00 55 1014.4
20260904190157 91 151 2.0 5.0 0.00 0.00 0.00 56 1014.6
20260904185653 91 147 2.0 5.0 0.00 0.00 0.00 57 1014.6
20260904185147 90 141 2.0 4.0 0.00 0.00 0.00 59 1014.6
20260904184646 90 150 3.0 5.0 0.00 0.00 0.00 59 1015.0
20260904184142 89 243 0.0 5.0 0.00 0.00 0.00 60 1014.9
20260904183638 90 257 2.0 6.0 0.00 0.00 0.00 60 1014.7
20260904183137 89 166 2.0 5.0 0.00 0.00 0.00 60 1015.1
20260904182632 90 185 0.0 2.0 0.00 0.00 0.00 61 1015.0
20260904182128 89 95 4.0 8.0 0.00 0.00 0.00 61 1014.7
20260904181624 89 236 3.0 4.0 0.00 0.00 0.00 62 1015.1
20260904181118 90 150 2.0 3.0 0.00 0.00 0.00 62 1015.0
20260904180613 90 147 5.0 6.0 0.00 0.00 0.00 61 1015.0
20260904180109 91 214 2.0 5.0 0.00 0.00 0.00 59 1015.1
20260904175608 91 292 0.0 5.0 0.00 0.00 0.00 58 1015.3
20260904175106 91 185 4.0 4.0 0.00 0.00 0.00 57 1015.2
20260904174601 92 315 1.0 6.0 0.00 0.00 0.00 57 1015.3
20260904174058 93 211 3.0 4.0 0.00 0.00 0.00 58 1015.2
20260904173557 92 282 3.0 6.0 0.00 0.00 0.00 60 1015.1
20260904173053 93 207 3.0 6.0 0.00 0.00 0.00 55 1015.4
20260904172549 93 165 3.0 5.0 0.00 0.00 0.00 58 1015.4
20260904172048 90 141 6.0 6.0 0.00 0.00 0.00 64 1015.4
20260904171543 90 206 3.0 5.0 0.00 0.00 0.00 64 1015.3
20260904171038 90 250 3.0 4.0 0.00 0.00 0.00 65 1015.6
20260904165714 91 309 2.0 6.0 0.00 0.00 0.00 66 1015.6
20260904165209 91 309 2.0 6.0 0.00 0.00 0.00 66 1015.6
20260904164703 90 213 1.0 5.0 0.00 0.00 0.00 67 1015.6
20260904164158 91 240 1.0 4.0 0.00 0.00 0.00 65 1015.8
20260904163654 90 180 2.0 3.0 0.00 0.00 0.00 67 1015.8
20260904163150 89 274 2.0 3.0 0.00 0.00 0.00 67 1015.6
20260904162648 89 307 1.0 3.0 0.00 0.00 0.00 70 1015.7
20260904162144 88 245 1.0 4.0 0.00 0.00 0.00 71 1015.7
20260904161639 88 280 2.0 3.0 0.00 0.00 0.00 70 1016.0
20260904161134 87 242 0.0 3.0 0.00 0.00 0.00 73 1015.9
20260904160630 87 248 0.0 3.0 0.00 0.00 0.00 72 1015.8
20260904160125 89 295 2.0 4.0 0.00 0.00 0.00 73 1015.8
20260904155620 88 295 0.0 3.0 0.00 0.00 0.00 73 1016.1
20260904155114 87 257 2.0 3.0 0.00 0.00 0.00 74 1016.0
20260904154608 86 261 2.0 3.0 0.00 0.00 0.00 76 1016.1
20260904154103 85 154 0.0 2.0 0.00 0.00 0.00 77 1015.9
20260904153602 85 59 0.0 2.0 0.00 0.00 0.00 79 1015.8
20260904153059 84 280 0.0 3.0 0.00 0.00 0.00 80 1015.8
20260904152554 84 267 0.0 4.0 0.00 0.00 0.00 81 1015.6
20260904152049 84 359 2.0 2.0 0.00 0.00 0.00 82 1015.7
20260904151544 83 318 1.0 3.0 0.00 0.00 0.00 83 1015.6
20260904151043 83 188 1.0 2.0 0.00 0.00 0.00 83 1015.6
20260904150538 83 223 0.0 3.0 0.00 0.00 0.00 84 1015.4
20260904150033 83 269 3.0 3.0 0.00 0.00 0.00 84 1015.5
20260904145532 82 255 0.0 4.0 0.00 0.00 0.00 85 1015.6
20260904145027 82 276 2.0 3.0 0.00 0.00 0.00 85 1015.4
20260904144523 82 273 1.0 3.0 0.00 0.00 0.00 86 1015.9
20260904144020 82 312 0.0 4.0 0.00 0.00 0.00 87 1015.6
20260904143515 82 232 0.0 1.0 0.00 0.00 0.00 87 1015.5
20260904143012 82 239 2.0 3.0 0.00 0.00 0.00 87 1015.5
20260904142508 82 206 0.0 2.0 0.00 0.00 0.00 88 1015.5
20260904142008 81 142 0.0 2.0 0.00 0.00 0.00 89 1015.5
20260904141503 81 206 0.0 3.0 0.00 0.00 0.00 90 1015.5
20260904140958 80 141 2.0 3.0 0.00 0.00 0.00 90 1015.3
20260904140453 80 168 1.0 4.0 0.00 0.00 0.00 91 1015.5
20260904135951 80 184 1.0 4.0 0.00 0.00 0.00 91 1015.4
20260904135446 80 127 3.0 4.0 0.00 0.00 0.00 91 1015.3
20260904134943 80 153 1.0 2.0 0.00 0.00 0.00 92 1015.4
20260904134442 80 323 0.0 2.0 0.00 0.00 0.00 92 1015.2